BEIDOU 10

Last updated on Jan. 22, 2021, 6:26 a.m. UTC

1 37948U 11073A   21021.71925051 -.00000154  00000-0  00000-0 0  9990
2 37948  51.2157 295.3564 0070122 215.9421 324.0110  1.00286165 33628
UTC
Height (km)
Latitude
Longitude
Inclination
Orbital Period
UTC large
Height (km)
Speed (km/s)
/
Latitude / Longitude
Inclination (degrees)
Orbital Period (minutes)
Azimuth
Elevation
Range (km)
Doppler Factor
iOS Compass Heading
iOS Angle

Next 30 passes for location: Hong Kong

Rise time Rise Azimuth (degrees) Set time Set Azimuth (degrees) Duration Max altitude (degrees)

No matching passes for this satellites